"Pseudo-MPEC" for P22patb

Created 2026 Aug 11 20:35:25 UT using Find_Orb

Click here for an explanation of pseudo-MPECs

 
 Astrometry: 
     P22patb 0C2026 07 24.57948423 50 23.925+07 00 30.86   ~8BK5 21.41wXNEOCPF51
     P22patb 0C2026 07 24.59122123 50 24.367+07 00 51.47   ~8BK5 22.01wXNEOCPF51
     P22patb 0C2026 07 24.60328023 50 24.826+07 01 12.58   ~8BK5 21.71wXNEOCPF51
     P22patb 0C2026 07 24.61495323 50 25.272+07 01 33.03   ~8BK5 21.67wXNEOCPF51
     P22patb 0C2026 07 26.49897123 51 42.114+07 56 26.64   ~8BK5 21.66wXNEOCPF52
     P22patb 0C2026 07 26.50857923 51 42.444+07 56 43.38   ~8BK5 22.01wXNEOCPF52
     P22patb 0C2026 07 26.52784423 51 43.085+07 57 17.20   ~8BK5 21.80wXNEOCPF52
     P22patb*0C2026 08 11.41279623 56 26.188+15 24 29.95   ~8BBZ 21.23wXNEOCPF52
     P22patb 0C2026 08 11.42356123 56 26.099+15 24 47.17   ~8BBZ 21.22wXNEOCPF52
     P22patb 0C2026 08 11.43435523 56 26.019+15 25 04.54   ~8BBZ 21.20wXNEOCPF52
     P22patb 0C2026 08 11.44514923 56 25.923+15 25 21.93   ~8BBZ 21.31wXNEOCPF52
     P22patb 0C2026 08 11.55840723 56 24.859+15 28 22.82   ~8BKZ 21.01GVNEOCPF52
     P22patb 0C2026 08 11.55904023 56 24.865+15 28 23.92   ~8BKZ 21.01GVNEOCPF52

Station data:
(F51) Pan-STARRS 1, Haleakala  (N20.707234 W156.255910)  US/Hawaii.
   Observers J. Herman, T. Lowe, P. Minguez, A. Schultz, I. Smith. Measurers
   K. Chambers, T. de Boer, J. Fairlamb, H. Gao, M. Huber, C.-C. Lin, E.
   Magnier, Y. Ramanjooloo, R. Wainscoat, R. Weryk. 1.8-m Ritchey-Chrétien +
   CCD.
(F52) Pan-STARRS 2, Haleakala  (N20.707382 W156.255910)  US/Hawaii.
   Observers J. Herman, T. Lowe, P. Minguez, A. Schultz, I. Smith. Measurers
   K. Chambers, T. de Boer, J. Fairlamb, H. Gao, M. Huber, C.-C. Lin, E.
   Magnier, Y. Ramanjooloo, R. Wainscoat, R. Weryk. 1.8-m Ritchey-Chrétien +
   CCD.

Orbital elements:  P22patb
   Perihelion 2026 Jul 18.026963 +/- 0.018 TT =  0:38:49.6 (JD 2461239.526963)
Epoch 2026 Aug 11.0 TT = JDT 2461263.5   Earth MOID: 0.4766      AutoNEOCP
M   6.112325711 +/- 0.007           (J2000 ecliptic)
n   0.254966686 +/- 0.000342        Peri.   10.099907 +/- 0.012
a   2.463090804 +/- 0.0022          Node   310.746715 +/- 0.008
e   0.39574215 +/- 0.000455         Incl.   13.958769 +/- 0.0057
P   3.86563                H 20.05  G  0.15   U  7.4
q 1.488341935 +/- 0.000229    Q 3.437839673 +/- 0.00419
From 13 observations 2026 July 24-Aug. 11; mean residual 0".05
Residuals in arcseconds: 
260724 F51  .04-  .06-    260726 F52  .05+  .06-    260811 F52  .04-  .02+    
260724 F51  .05-  .00     260726 F52  .02-  .04+    260811 F52  .08-  .06-    
260724 F51  .01+  .01+    260811 F52  .03+  .07+    260811 F52  .09+  .03+    
260724 F51  .09+  .05+    260811 F52  .05-  .04-    
260726 F52  .03-  .02+    260811 F52  .05+  .02-    

Ephemerides (geocentric):
Date (UTC) HH   RA             Dec           delta  r     elong  mag " sig PA
---- --------  ------------   ------------  ------ ------ -----  --- --------
2026 08 11 21  23 56 23.503   +15 36 46.96  .62695 1.5045 131.6 21.2 .039  96
2026 08 11 22  23 56 23.292   +15 37 53.01  .62684 1.5045 131.6 21.2 .043  96
2026 08 11 23  23 56 23.076   +15 38 59.03  .62674 1.5046 131.6 21.2 .046  96
2026 08 12 00  23 56 22.855   +15 40 05.01  .62664 1.5047 131.7 21.2 .049  96
2026 08 12 01  23 56 22.629   +15 41 10.97  .62654 1.5047 131.7 21.2 .053  96
2026 08 12 02  23 56 22.399   +15 42 16.89  .62643 1.5048 131.7 21.2 .056  96
2026 08 12 03  23 56 22.163   +15 43 22.78  .62633 1.5048 131.7 21.2 .060  96
2026 08 12 04  23 56 21.923   +15 44 28.64  .62623 1.5049 131.8 21.2 .063  96
2026 08 12 05  23 56 21.678   +15 45 34.47  .62613 1.5049 131.8 21.2 .067  96
2026 08 12 06  23 56 21.428   +15 46 40.27  .62603 1.5050 131.8 21.2 .070  96
2026 08 12 07  23 56 21.173   +15 47 46.03  .62592 1.5050 131.9 21.2 .074  96
2026 08 12 08  23 56 20.914   +15 48 51.76  .62582 1.5051 131.9 21.2 .077  96
2026 08 12 09  23 56 20.649   +15 49 57.47  .62572 1.5051 131.9 21.2 .081  96
2026 08 12 10  23 56 20.380   +15 51 03.13  .62562 1.5052 131.9 21.2 .085  96
2026 08 12 11  23 56 20.106   +15 52 08.77  .62552 1.5053 132.0 21.2 .088  96
2026 08 12 12  23 56 19.827   +15 53 14.38  .62542 1.5053 132.0 21.2 .092  96
2026 08 12 13  23 56 19.544   +15 54 19.95  .62532 1.5054 132.0 21.2 .095  96
2026 08 12 14  23 56 19.255   +15 55 25.49  .62522 1.5054 132.0 21.2 .099  96
2026 08 12 15  23 56 18.962   +15 56 31.00  .62512 1.5055 132.1 21.2 .103  96
2026 08 12 16  23 56 18.664   +15 57 36.47  .62502 1.5055 132.1 21.2 .107  96
2026 08 12 17  23 56 18.361   +15 58 41.92  .62492 1.5056 132.1 21.2 .110  96
2026 08 12 18  23 56 18.053   +15 59 47.33  .62482 1.5056 132.2 21.2 .114  96
2026 08 12 19  23 56 17.740   +16 00 52.71  .62473 1.5057 132.2 21.2 .118  96
2026 08 12 20  23 56 17.423   +16 01 58.05  .62463 1.5058 132.2 21.2 .121  95
2026 08 12 21  23 56 17.100   +16 03 03.36  .62453 1.5058 132.2 21.2 .125  95
2026 08 12 22  23 56 16.773   +16 04 08.64  .62443 1.5059 132.3 21.2 .129  95
2026 08 12 23  23 56 16.441   +16 05 13.89  .62433 1.5059 132.3 21.2 .133  95
2026 08 13 00  23 56 16.104   +16 06 19.10  .62423 1.5060 132.3 21.2 .137  95
2026 08 13 01  23 56 15.763   +16 07 24.29  .62414 1.5060 132.3 21.2 .141  95
2026 08 13 02  23 56 15.416   +16 08 29.43  .62404 1.5061 132.4 21.2 .144  95
2026 08 13 03  23 56 15.065   +16 09 34.55  .62394 1.5061 132.4 21.2 .148  95
2026 08 13 04  23 56 14.709   +16 10 39.63  .62385 1.5062 132.4 21.2 .152  95
2026 08 13 05  23 56 14.348   +16 11 44.68  .62375 1.5063 132.5 21.2 .156  95
2026 08 13 06  23 56 13.983   +16 12 49.69  .62365 1.5063 132.5 21.2 .160  95
2026 08 13 07  23 56 13.612   +16 13 54.67  .62356 1.5064 132.5 21.2 .164  95
2026 08 13 08  23 56 13.237   +16 14 59.62  .62346 1.5064 132.5 21.2 .168  95
2026 08 13 09  23 56 12.857   +16 16 04.53  .62336 1.5065 132.6 21.2 .172  95
2026 08 13 10  23 56 12.472   +16 17 09.41  .62327 1.5065 132.6 21.2 .176  95
2026 08 13 11  23 56 12.082   +16 18 14.25  .62317 1.5066 132.6 21.2 .180  95
2026 08 13 12  23 56 11.687   +16 19 19.07  .62308 1.5067 132.6 21.2 .184  95
2026 08 13 13  23 56 11.288   +16 20 23.84  .62298 1.5067 132.7 21.2 .188  95
2026 08 13 14  23 56 10.884   +16 21 28.59  .62289 1.5068 132.7 21.2 .192  95
2026 08 13 15  23 56 10.475   +16 22 33.29  .62279 1.5068 132.7 21.2 .197  95
2026 08 13 16  23 56 10.061   +16 23 37.97  .62270 1.5069 132.8 21.2 .201  95
2026 08 13 17  23 56 09.643   +16 24 42.61  .62260 1.5069 132.8 21.2 .205  95
2026 08 13 18  23 56 09.219   +16 25 47.22  .62251 1.5070 132.8 21.2 .209  95
2026 08 13 19  23 56 08.791   +16 26 51.79  .62242 1.5071 132.8 21.2 .213  95
2026 08 13 20  23 56 08.358   +16 27 56.32  .62232 1.5071 132.9 21.2 .217  95